Dewpoint
61 60 61 56 53 53 49 42 30 30 32 25 19 25 20 30 27 24 24 24 24 28 29 30 28 31 30 30 31 34 35 33 36 28 32 45 45 44 45 47 47 49 51 53 56 59 61 62 62 62 63 63 63 64 64 65 65 65 66 67 67 67 67 67 67 67 67 67 68 68 68 68 68 69 69 69 69 70 70 69 69 69 69 69 68 69 69 68 68 68 68 68 67 70 70 68 68
57 57 55 55 52 51 45 36 32 22 24 19 22 23 25 28 29 22 22 22 28 29 35 31 30 35 36 36 37 35 34 39 39 42 44 44 41 42 44 45 45 47 51 53 55 57 59 60 61 61 62 62 62 63 63 63 64 64 65 65 65 65 66 66 67 67 67 67 67 67 68 68 68 68 69 69 69 69 69 69 69 69 69 69 68 68 68 68 67 67 67 68 68 69 70 70 69
55 54 53 51 47 47 45 37 26 23 20 15 19 21 26 25 25 22 20 22 33 34 34 33 34 32 32 31 30 30 31 41 41 41 41 44 40 39 42 44 44 47 51 52 54 56 57 59 60 60 61 61 61 62 62 62 63 63 64 64 64 64 65 66 66 66 66 66 66 66 67 68 68 67 68 68 68 68 68 68 68 68 68 68 68 68 68 68 68 68 68 68 67 68 70 70 69
57 56 52 51 45 44 39 31 29 24 21 17 17 24 25 24 23 23 25 33 36 33 32 32 29 32 30 28 29 32 38 38 41 41 41 41 39 39 40 42 42 46 50 52 53 54 56 58 59 59 60 60 60 61 61 61 62 62 62 62 62 63 64 64 64 65 65 65 65 66 66 67 66 66 67 66 65 66 67 67 67 67 67 67 68 68 68 68 68 68 68 68 68 67 69 69 69
54 52 53 48 49 39 37 32 26 21 14 18 14 24 24 24 22 24 29 34 33 30 30 30 30 31 32 32 33 32 37 40 40 40 41 41 38 37 39 41 41 45 47 48 50 52 54 57 58 59 59 59 59 60 60 60 61 61 60 60 61 62 62 62 62 62 62 63 64 64 64 64 64 64 64 63 63 64 64 65 65 67 67 67 67 68 68 68 68 68 68 68 68 67 68 68 68
50 45 48 48 42 33 29 25 24 18 23 21 15 19 22 22 23 26 31 32 30 28 26 29 27 29 28 31 33 33 39 38 40 39 41 39 39 39 38 39 36 40 43 46 49 51 54 57 57 57 58 58 59 59 59 59 59 59 59 59 60 60 61 60 60 60 60 61 61 61 61 62 62 62 61 61 61 62 62 63 64 65 65 65 66 66 66 67 68 69 69 69 69 69 69 69 69
46 43 40 38 34 36 29 22 19 18 21 21 22 20 22 22 25 28 30 29 29 28 28 26 27 29 26 31 33 33 34 38 39 40 42 42 38 36 36 32 35 36 39 42 47 50 54 56 57 57 57 57 57 57 58 58 57 57 57 57 58 58 59 59 57 57 57 58 59 59 59 59 59 59 58 58 59 60 60 61 62 63 63 63 63 64 64 65 66 67 68 68 69 69 68 68 69
48 47 42 35 31 30 25 24 22 21 22 23 23 23 20 24 27 27 28 27 26 26 27 28 28 26 27 32 31 32 37 37 43 40 38 33 38 38 37 28 29 28 32 38 45 49 52 54 55 55 55 56 56 56 56 56 56 56 55 55 55 56 56 56 55 55 55 55 55 56 56 56 56 56 55 55 56 57 58 59 60 60 60 60 60 61 62 63 65 65 65 66 67 67 68 68 68
41 39 41 37 28 29 24 22 25 22 25 24 21 28 37 26 27 26 27 27 26 26 27 27 28 24 27 30 32 35 33 39 38 38 34 35 36 36 34 28 26 34 35 34 40 47 50 50 53 54 54 54 54 54 54 54 54 54 54 54 54 55 55 55 54 53 53 53 53 54 54 53 54 54 53 53 54 55 56 56 57 57 57 58 58 58 59 61 62 63 63 63 63 63 64 65 66
38 38 33 34 31 24 26 23 21 22 24 24 23 19 25 25 27 26 26 26 25 25 27 28 27 24 28 26 29 35 35 38 35 34 33 35 34 33 32 35 35 35 31 31 36 40 44 47 49 51 52 52 53 53 53 53 53 53 53 52 53 53 53 53 52 51 51 50 51 51 52 51 52 52 52 52 53 54 55 55 56 55 55 56 56 56 57 58 60 61 61 61 60 60 59 60 62
33 33 39 33 26 22 24 19 22 23 23 22 20 20 23 24 26 25 26 25 26 25 28 27 25 24 26 26 30 35 37 35 30 29 32 33 35 32 27 35 37 32 33 39 35 34 35 40 44 47 49 50 50 51 51 52 51 51 51 51 51 51 51 51 51 50 48 49 49 49 50 49 50 50 50 50 51 52 53 53 54 53 53 54 55 54 55 56 58 58 59 59 58 58 58 57 57
31 32 35 29 25 24 23 21 25 24 21 22 19 20 23 24 25 24 24 24 25 26 26 28 24 25 25 26 31 31 34 32 30 30 32 33 29 31 30 27 34 33 35 34 34 33 33 36 36 40 43 46 48 48 49 49 49 50 49 49 49 49 49 49 49 48 47 47 47 47 48 48 48 48 48 48 49 50 51 51 51 51 51 52 53 52 53 54 55 56 56 56 56 56 56 55 55
35 36 28 25 26 22 29 23 24 28 25 21 19 20 23 23 23 23 23 24 25 25 26 27 27 25 23 25 28 28 32 32 28 31 31 25 29 30 31 27 31 32 32 34 32 33 35 30 32 32 37 39 43 45 46 46 47 47 47 47 47 47 46 47 48 47 47 46 45 44 44 45 45 46 46 47 47 48 49 49 49 49 49 50 50 50 51 51 52 53 53 53 54 54 53 53 53
33 38 31 27 29 27 23 24 25 22 20 22 20 21 22 23 23 23 22 22 23 23 24 27 25 26 24 25 26 27 31 32 27 30 26 27 28 28 31 29 36 30 35 30 29 30 32 30 30 33 33 33 35 39 41 44 44 45 45 45 45 45 44 44 44 45 44 43 42 42 41 42 42 43 43 44 44 46 46 46 47 48 49 50 49 49 50 51 51 51 51 51 52 51 51 50 50
36 37 31 32 27 25 27 20 23 22 19 21 20 21 21 23 22 23 21 21 21 23 24 26 28 23 19 22 24 28 30 32 27 28 31 29 30 28 33 33 34 34 30 26 27 27 25 28 27 32 33 32 33 34 35 35 42 42 42 43 43 43 43 42 42 41 42 42 41 40 39 38 39 40 39 40 41 42 43 43 45 46 47 49 49 49 50 50 50 50 50 50 50 50 50 48 48
39 35 29 27 20 25 28 23 24 24 19 20 21 21 20 21 23 22 22 23 27 27 24 24 26 23 23 22 26 27 29 29 27 28 27 30 30 31 30 27 23 26 29 28 27 30 27 28 29 29 30 30 32 31 35 33 36 39 40 40 40 40 40 40 39 39 39 39 39 38 39 37 38 37 38 35 38 39 39 40 42 43 44 45 47 46 48 49 48 48 49 50 50 49 48 48 48
38 38 24 21 18 24 27 23 24 19 22 22 21 20 18 19 22 22 19 20 21 23 23 24 25 23 21 23 25 25 28 28 30 26 28 26 24 21 23 23 23 24 30 28 25 24 30 27 26 27 28 29 31 30 31 35 34 35 34 36 37 37 38 37 37 36 38 37 37 39 40 33 34 35 34 35 38 35 37 38 40 41 42 42 44 43 44 46 47 47 48 49 48 47 46 47 46
39 27 24 21 23 22 25 22 24 25 19 21 20 20 19 18 20 20 19 19 20 20 22 23 23 21 21 24 27 26 29 27 25 23 24 24 22 16 17 19 20 20 23 23 25 24 24 27 29 26 29 31 30 33 34 34 33 31 33 33 33 33 34 34 33 33 36 33 39 34 31 29 31 31 31 35 34 34 35 37 38 39 41 40 41 43 43 43 44 44 45 45 46 45 45 43 42
29 28 23 18 25 24 20 20 21 19 20 19 20 21 20 19 20 18 18 18 19 19 19 21 22 22 20 22 27 26 26 26 24 20 23 24 20 17 18 21 18 19 21 21 22 21 25 24 24 23 28 30 31 31 34 31 30 30 31 32 34 33 34 32 32 31 32 33 33 31 28 28 32 30 30 34 36 36 34 36 37 38 38 38 39 40 40 41 43 43 43 43 44 43 41 41 38
30 26 19 19 30 26 22 21 21 22 20 19 20 20 20 19 20 18 19 18 19 18 18 20 21 21 20 21 23 24 24 25 25 22 22 23 21 18 17 20 17 19 19 21 22 27 24 23 28 27 28 30 29 28 31 28 27 28 29 30 30 30 32 32 33 32 32 33 33 29 27 31 33 29 39 41 40 32 34 37 35 35 35 36 37 37 37 37 40 39 41 41 40 43 40 38 37
32 22 20 23 25 21 21 23 21 22 21 20 19 19 20 20 20 19 18 18 18 18 19 19 19 20 22 21 24 25 24 24 24 24 23 23 23 21 16 16 17 17 20 22 23 22 21 23 25 27 29 30 30 27 29 26 28 26 28 27 29 28 30 30 30 32 33 34 33 29 32 31 32 29 32 31 31 31 33 32 32 31 32 35 35 34 33 36 36 37 36 38 37 39 38 39 38
30 19 22 23 25 20 20 21 22 21 21 20 20 19 19 20 19 18 18 17 18 17 19 20 20 20 21 21 24 25 22 25 22 23 23 23 23 18 16 19 16 19 22 19 20 19 22 20 26 25 26 28 30 28 27 26 32 26 28 27 28 29 31 29 30 30 30 33 31 31 28 30 30 29 31 32 32 29 29 28 28 28 31 32 31 31 32 34 34 34 35 35 35 36 38 39 39
21 21 19 21 23 19 21 21 22 21 20 19 19 19 19 19 19 19 18 18 19 19 18 19 19 21 20 21 24 24 24 23 22 24 24 23 23 21 15 16 18 20 23 18 19 16 18 19 26 28 25 27 30 29 27 27 26 27 28 28 30 27 28 30 28 27 31 31 30 29 28 27 27 26 28 30 30 29 29 27 27 27 29 28 28 29 33 32 32 32 32 35 36 37 38 39 39
21 19 20 22 24 21 21 21 23 21 20 19 20 20 19 19 18 20 19 19 19 18 17 16 17 20 19 20 23 24 24 23 23 22 24 23 23 22 19 14 13 19 23 20 19 18 22 20 21 24 24 26 28 27 25 24 25 29 28 28 28 26 27 27 27 28 30 27 30 27 27 27 25 25 28 27 28 28 29 29 29 27 27 27 28 28 30 29 30 30 34 36 36 37 37 39 38
20 18 21 24 24 23 24 23 22 22 21 20 20 20 19 19 19 19 18 19 20 20 17 17 18 18 18 19 21 24 24 25 24 24 25 22 26 24 25 19 17 23 23 21 21 18 21 21 16 16 20 20 22 23 22 22 24 27 27 27 26 27 27 27 27 28 27 26 26 28 28 27 25 26 27 26 27 28 28 29 26 25 28 27 28 27 28 29 29 29 31 32 34 36 35 36 36
20 19 21 24 22 22 22 21 21 22 22 21 20 20 20 20 21 19 19 20 20 20 19 18 18 20 18 19 19 21 23 25 27 23 23 25 26 23 26 20 19 17 20 20 23 21 20 19 15 14 18 18 23 21 24 23 25 26 27 27 25 28 27 28 28 25 25 24 24 28 28 26 26 23 25 24 25 26 26 28 26 26 25 25 25 28 27 28 28 28 29 32 32 33 33 35 35
21 21 21 20 20 20 22 19 21 20 21 21 20 19 19 18 19 17 17 16 19 20 19 18 17 18 18 18 19 19 22 24 24 23 23 24 24 22 26 25 21 16 20 21 20 22 22 17 20 17 21 28 26 22 25 21 23 24 26 26 27 27 27 27 26 26 25 24 25 28 27 27 25 25 24 25 24 24 25 26 25 25 24 24 25 27 27 29 28 28 30 30 30 31 31 31 33
21 20 19 19 19 19 19 19 19 19 18 20 19 19 19 19 21 17 17 16 17 18 18 18 18 19 17 17 17 22 19 24 23 24 22 21 22 20 22 21 20 17 21 21 20 22 21 18 18 17 19 25 23 21 26 24 25 26 27 24 25 26 27 25 24 25 25 24 27 28 27 26 24 24 26 26 25 24 23 24 25 25 25 24 25 26 27 29 29 30 31 32 33 32 30 30 31
19 18 16 16 17 17 20 18 19 20 18 19 19 18 17 18 17 19 18 16 16 16 17 16 17 17 20 19 17 19 19 19 21 21 22 20 19 18 19 20 19 19 21 21 21 24 18 18 16 16 17 24 17 18 22 22 23 23 25 25 25 29 25 25 24 25 24 25 27 27 26 25 24 24 23 25 25 22 24 25 24 25 25 25 26 28 29 29 27 27 29 30 30 30 30 31 33
18 18 17 15 17 16 19 19 19 19 18 19 18 14 12 17 18 19 17 16 15 16 17 16 18 17 17 19 16 18 18 18 19 20 20 20 19 17 17 19 19 20 20 20 23 19 18 26 26 24 21 22 23 16 18 20 22 24 23 22 23 24 21 22 23 24 23 22 24 26 26 24 24 23 24 25 24 22 24 24 24 23 24 25 26 26 25 25 25 27 27 27 29 28 28 29 28
16 17 18 19 17 14 19 20 18 18 20 18 18 19 13 18 18 20 20 17 16 16 16 16 18 19 17 19 18 17 17 18 17 17 21 22 18 17 17 18 18 18 22 21 21 19 19 25 25 18 24 26 24 23 23 24 24 23 21 22 23 25 23 22 21 24 22 22 22 22 25 24 23 24 25 23 23 22 21 21 22 21 24 26 24 24 25 25 25 26 25 26 27 26 27 27 27
17 11 18 25 16 15 19 21 18 17 19 18 18 20 17 16 18 20 18 17 16 16 16 16 17 17 16 16 16 16 17 16 18 17 17 18 18 16 18 17 17 17 19 21 21 20 15 18 22 21 21 23 25 25 25 25 21 23 22 27 23 26 21 23 21 23 22 20 20 22 25 24 24 24 24 24 22 22 20 21 20 22 25 24 24 25 26 25 24 27 27 28 26 27 26 27 27
19 14 21 19 23 20 14 20 21 19 18 19 17 12 11 12 17 18 15 16 15 15 16 17 16 16 16 15 15 15 16 15 18 16 16 17 17 14 15 14 18 18 18 20 20 21 17 21 20 21 19 21 20 20 26 25 23 23 20 22 23 24 20 20 21 22 22 22 19 19 22 24 24 24 24 24 22 23 21 22 20 24 24 24 24 24 24 25 25 29 26 27 28 26 27 28 28
21 23 14 27 13 8 7 15 16 22 17 15 17 16 15 14 15 17 16 15 16 15 16 16 16 17 16 17 15 15 15 15 14 15 14 16 17 14 12 20 19 19 20 18 21 18 15 20 21 21 22 19 20 23 22 24 22 23 22 22 22 20 24 20 19 20 21 19 19 19 23 23 22 23 24 24 22 23 22 22 22 23 23 23 23 24 24 25 27 26 25 27 27 27 26 26 26
19 17 17 12 17 15 11 13 13 14 17 15 15 16 15 14 15 16 16 15 16 16 16 16 16 16 17 17 17 15 15 15 14 14 16 16 20 16 12 16 19 20 18 17 20 17 18 22 21 23 22 21 21 23 25 25 22 21 20 24 23 22 22 20 20 19 20 19 19 22 23 22 21 23 23 23 22 21 20 21 22 23 23 22 23 24 24 25 27 27 28 27 28 27 26 27 26
14 15 14 16 15 11 12 14 15 13 13 14 14 14 13 13 13 13 13 15 15 15 16 17 17 17 17 17 19 17 17 14 17 18 20 19 20 18 13 16 20 20 16 15 19 19 18 20 20 21 20 15 18 19 22 20 19 18 21 21 22 21 21 20 22 19 20 18 20 21 22 23 21 20 21 22 23 22 21 20 21 23 23 23 23 25 25 23 25 27 28 27 27 26 26 26 27
19 26 25 17 20 18 17 16 12 11 10 10 11 11 11 12 12 13 14 15 18 17 16 17 18 19 20 19 19 19 17 16 24 22 23 22 22 19 16 18 20 19 16 15 17 20 18 18 20 21 20 17 16 18 18 18 19 20 20 19 18 19 18 21 21 21 20 17 21 21 23 21 22 22 21 21 21 21 20 21 22 22 23 23 23 24 25 26 26 27 26 25 26 26 25 26 27
17 21 23 17 25 15 13 12 12 15 13 12 13 13 15 15 15 16 16 17 16 16 17 17 17 18 20 22 23 21 18 23 26 23 22 23 19 22 19 19 21 16 16 15 18 19 18 17 18 18 19 17 15 15 18 19 20 18 17 19 18 17 17 16 17 19 19 22 22 22 22 20 21 21 20 21 20 21 21 20 21 21 22 22 23 24 25 26 26 26 27 24 25 24 24 26 27
19 19 20 19 16 21 15 13 17 16 16 15 15 15 16 17 17 18 18 17 18 18 19 18 19 21 22 23 23 22 21 21 20 17 21 18 22 20 17 18 18 15 17 17 19 20 20 19 18 19 19 18 19 19 20 20 21 22 19 20 18 18 20 18 19 20 21 20 21 21 20 20 20 20 20 20 20 21 21 20 19 20 21 23 22 23 24 25 25 25 25 24 22 23 23 27 28
20 19 17 18 23 17 16 17 19 17 16 15 17 16 16 16 17 17 18 17 18 22 21 24 25 22 22 22 23 22 20 20 19 16 16 13 19 16 15 15 17 15 17 16 16 18 20 19 17 20 19 19 21 20 20 23 22 24 23 22 22 19 17 20 23 22 21 21 21 22 21 20 19 19 19 21 19 20 21 20 20 20 21 22 23 22 23 24 25 25 24 24 25 22 22 22 25
23 25 22 19 23 19 16 15 16 16 17 20 17 19 18 19 16 16 18 20 18 18 18 20 23 30 28 32 28 24 19 20 20 17 16 12 14 13 13 14 14 14 15 17 16 16 18 19 22 21 20 20 21 23 22 23 22 23 23 23 22 21 22 19 19 17 20 19 18 19 19 19 19 18 19 19 19 19 21 20 21 21 21 22 22 21 21 22 23 23 24 24 24 22 21 22 24
21 25 22 20 22 16 19 22 16 16 17 19 23 10 11 23 20 18 21 18 17 19 20 20 21 22 26 24 24 24 27 23 21 18 16 14 13 13 13 14 12 12 13 15 16 17 17 20 22 21 21 21 21 23 23 21 20 19 19 17 16 16 15 17 14 14 15 15 16 17 19 19 20 19 19 19 19 19 20 20 22 22 22 21 22 21 21 22 24 24 24 24 23 24 22 22 22
20 19 27 21 18 22 21 20 20 17 15 21 22 13 13 15 10 14 16 19 16 19 23 20 20 24 24 25 25 24 24 24 22 21 18 15 14 14 14 12 12 11 14 15 16 16 16 23 24 24 21 21 23 22 24 21 21 19 19 19 18 17 15 16 16 15 15 14 16 16 17 19 19 19 18 18 19 19 20 20 22 22 21 22 21 21 20 21 22 23 23 23 23 23 24 22 23
18 24 24 22 20 21 22 20 20 17 23 25 20 19 13 14 9 13 13 13 13 14 14 20 21 22 24 24 25 25 25 24 24 22 20 17 14 14 13 12 10 11 14 15 16 16 16 20 20 23 22 22 25 23 23 21 20 21 21 21 19 18 17 16 19 14 16 16 16 18 16 15 17 17 17 17 18 18 19 19 21 22 22 22 21 20 20 20 22 23 24 24 23 22 23 22 23
22 23 23 23 21 23 22 21 18 17 15 18 18 24 17 17 19 15 16 14 15 16 16 19 20 24 22 25 24 25 26 25 24 25 21 19 16 15 13 11 11 11 14 15 16 17 17 18 19 21 20 21 22 23 22 22 19 20 20 19 19 18 18 18 16 16 15 17 16 15 16 16 16 16 17 18 18 18 18 20 21 21 21 21 20 21 21 22 23 22 22 22 23 23 22 23 23
24 22 23 21 22 22 20 16 15 15 15 18 15 21 11 10 19 15 16 17 16 16 15 15 18 21 27 26 25 24 25 26 25 24 22 21 19 16 14 12 10 10 13 18 17 18 18 18 18 18 17 19 21 22 22 23 21 20 20 20 20 19 17 16 16 15 16 16 15 16 16 15 13 14 15 17 18 19 19 19 20 21 21 20 20 20 22 22 23 23 23 23 23 23 22 22 22
25 26 26 23 21 16 16 16 17 20 18 21 18 19 13 11 17 17 17 18 15 14 13 14 19 26 23 25 27 28 25 26 25 24 23 22 20 17 11 10 9 9 13 15 17 18 18 19 17 16 16 18 19 20 19 22 21 19 19 21 21 20 20 18 16 16 16 16 14 15 15 15 14 13 13 14 16 18 19 19 19 20 20 20 20 20 20 21 21 22 22 23 23 22 21 22 22
25 19 17 22 23 16 16 18 19 16 14 16 14 19 19 13 14 18 11 16 15 11 9 10 14 17 27 29 27 25 24 25 24 21 20 21 17 14 10 8 8 9 11 13 16 18 19 18 17 16 16 17 16 17 17 18 18 18 17 20 20 19 19 17 16 16 15 16 15 13 12 12 12 14 13 13 15 16 18 17 19 19 18 19 19 19 19 19 20 20 20 20 20 21 21 21 21
23 19 19 19 17 17 12 16 12 14 11 17 11 16 14 12 8 12 14 12 13 16 11 7 13 18 26 31 30 28 25 23 20 18 17 17 15 12 9 7 8 9 10 12 15 18 18 18 17 16 16 16 16 16 16 16 16 15 16 16 17 18 18 17 16 16 16 14 12 12 12 11 12 13 12 13 15 17 16 16 17 17 17 18 18 20 20 21 21 20 20 21 20 20 20 20 19
19 18 20 19 15 14 12 12 13 11 25 15 10 15 8 10 10 13 12 12 13 15 20 24 22 21 25 32 31 25 21 19 19 18 17 18 15 12 10 7 7 9 10 12 15 17 18 18 16 15 16 16 16 15 15 15 15 15 14 13 13 14 14 16 15 14 14 12 13 11 11 11 11 12 11 13 13 15 15 17 17 17 18 18 19 20 20 20 21 20 20 20 20 19 19 20 20
18 23 20 21 17 14 11 4 5 10 10 12 13 11 17 14 9 16 11 12 13 15 19 25 27 29 32 23 24 21 19 17 18 18 16 15 14 11 10 8 8 9 10 12 15 17 17 17 16 15 15 15 15 15 15 15 14 14 13 12 12 10 10 12 12 14 13 13 12 12 12 11 10 10 11 12 13 15 16 16 17 18 18 18 19 19 21 20 20 20 19 19 18 18 19 19 19
19 23 23 19 20 16 8 14 11 15 13 15 17 16 13 9 17 24 22 18 16 19 19 24 22 24 26 22 22 19 17 16 17 17 16 15 14 12 10 9 8 9 10 12 14 16 16 16 15 15 15 15 15 15 15 14 14 14 13 12 10 9 9 8 7 10 10 12 12 10 9 9 10 10 11 13 15 15 16 17 17 17 17 18 18 18 19 18 19 19 19 18 19 21 19 20 19
18 20 20 20 24 16 17 20 19 20 14 13 20 10 15 13 13 13 19 16 15 17 17 18 21 24 24 26 23 17 16 16 17 17 16 15 13 11 10 8 8 9 10 11 14 16 16 16 15 15 15 15 15 15 14 13 13 12 11 10 9 8 7 8 7 6 5 5 7 7 8 10 11 11 13 14 15 15 15 16 16 17 17 18 17 17 18 19 19 19 19 19 19 19 19 19 19
20 18 19 25 27 25 18 11 18 14 10 14 16 17 9 10 13 17 16 15 12 16 16 16 20 22 21 25 23 19 18 16 16 15 15 14 13 12 10 9 8 9 10 11 14 16 16 16 15 14 15 14 14 13 13 12 11 9 8 7 6 6 6 5 5 4 5 5 5 6 7 8 9 11 12 15 14 15 16 16 16 15 16 16 16 17 18 18 19 18 19 19 19 19 18 18 17
19 17 29 16 15 14 14 16 11 9 12 12 10 8 13 11 10 14 14 14 14 13 17 17 16 18 21 23 20 19 17 16 16 15 15 15 14 13 11 10 9 9 11 12 14 16 16 16 15 15 14 14 13 13 11 10 8 8 6 6 5 5 5 5 5 5 6 6 6 6 5 6 8 9 10 12 12 13 13 14 14 14 14 15 16 17 17 17 18 17 18 18 18 18 18 17 17
23 22 17 21 13 20 17 15 20 11 12 13 15 17 12 18 10 11 13 14 17 14 15 16 16 18 19 19 18 17 17 16 15 14 15 15 14 13 12 10 9 10 11 13 15 16 16 15 15 14 13 13 12 11 10 8 6 6 5 5 5 5 5 5 5 6 6 6 6 6 6 6 7 8 9 10 10 11 12 12 12 13 14 15 16 16 16 17 17 16 17 17 18 18 18 17 17
15 14 15 13 23 18 16 14 17 11 11 9 10 11 18 17 12 10 11 13 16 16 18 23 22 21 21 20 17 16 16 16 16 15 14 14 14 13 12 11 10 10 12 14 15 15 16 15 15 14 12 12 11 9 8 6 6 5 6 5 5 5 5 6 6 6 6 6 6 8 7 7 8 8 8 9 9 10 11 12 12 13 14 14 15 15 15 15 16 16 15 16 16 17 17 17 17
18 15 14 14 17 15 14 14 15 19 12 13 10 13 18 17 14 7 9 11 18 22 22 23 26 22 22 22 17 16 16 15 15 15 14 13 13 13 12 11 11 12 13 14 15 15 15 15 15 14 12 11 9 7 7 5 6 5 5 5 5 6 6 6 6 6 7 7 7 7 7 8 8 8 8 9 10 10 11 12 12 13 14 14 14 14 14 14 14 13 13 14 14 15 14 14 14